Regional Weather Roundup
Issued by NWS

Home | Current Version | Previous Version | Text Only | Print | Product List | Glossary On
Versions: 1 2 3 4 5 6 7 8 9 10 11 12 13 14 15 16 17 18 19 20 21 22 23 24 25 26 27 28 29 30 31 32 33 34 35 36 37 38 39 40 41 42 43 44 45 46 47 48 49 50
789
ASUS45 KPSR 272010
RWRAZ

ARIZONA HOURLY REGIONAL WEATHER ROUNDUP
NATIONAL WEATHER SERVICE PHOENIX AZ
100 PM MST FRI MAY 27 2016

NOTE: FAIR INDICATES FEW OR NO CLOUDS BELOW 12,000 FEET WITH NO
SIGNIFICANT WEATHER AND/OR OBSTRUCTIONS TO VISIBILITY.

AZZ001>003-036-272100-
NORTHWEST ARIZONA

CITY           SKY/WX    TMP DP  RH WIND       PRES   REMARKS
BULLHEAD CITY  MOSUNNY   91  32  12 MISG      29.78
KINGMAN        MOSUNNY   80  27  14 VRB7      29.91F
$$

AZZ004>008-015-016-018-272100-
NORTH CENTRAL ARIZONA

CITY           SKY/WX    TMP DP  RH WIND       PRES   REMARKS
GRAND CANYON   CLOUDY    65  24  21 VRB7      30.05F
WILLIAMS       PTSUNNY   64  23  20 SW5G17    30.13F
PRESCOTT       FAIR      72  26  18 VRB7      29.98F
FLAGSTAFF      PTSUNNY   60  27  28 VRB3      30.07F
PAYSON         SUNNY     73  27  17 W10G24    30.01S
PAGE           PTSUNNY   76  30  18 MISG      29.90F
$$

AZZ009>014-017-272100-
NORTHEAST ARIZONA

CITY           SKY/WX    TMP DP  RH WIND       PRES   REMARKS
WINSLOW        PTSUNNY   72  27  18 CALM      29.95F
SAINT JOHNS    MOSUNNY   69  25  19 NW8G23    29.97F
WINDOW ROCK    MOSUNNY   67  23  19 W8G21     30.00F
SHOW LOW       MOSUNNY   64  23  20 W7G17     30.04F
$$

AZZ023-272100-
GREATER PHOENIX AREA

CITY           SKY/WX    TMP DP  RH WIND       PRES   REMARKS
PHOENIX        MOSUNNY   87  31  13 CALM      29.80F
BUCKEYE        SUNNY     88  34  14 S8        29.83F
GLENDALE       MOSUNNY   90  36  14 S8        29.82F
LUKE AFB       MOSUNNY   89  35  15 S8G18     29.79F
DEER VALLEY    SUNNY     87  34  15 S12       29.81F
SCOTTSDALE     SUNNY     87  31  13 S7        29.83F
MESA-GATEWAY   MOSUNNY   84  34  16 W9        29.84F
CHANDLER       MOSUNNY   86  32  14 W7        29.82F
$$

AZZ027-028-272100-
SOUTHWEST MARICOPA COUNTY AND PINAL COUNTY

CITY           SKY/WX    TMP DP  RH WIND       PRES   REMARKS
CASA GRANDE    SUNNY     86  34  15 S7        29.84F
GILA BEND      MOSUNNY   88  32  13 W3        29.81F
$$

AZZ503-504-507>509-272100-
SOUTHEAST ARIZONA

CITY           SKY/WX    TMP DP  RH WIND       PRES   REMARKS
TUCSON         SUNNY     83  26  12 VRB6      29.90F
DAVIS-MONTHAN  MOSUNNY   82  27  13 NW7       29.88F
RYAN FIELD     SUNNY     82  27  13 W5        29.89F
NOGALES        SUNNY     81  19  10 NW9       29.93F
SIERRA VISTA   SUNNY     75  21  13 VRB3      29.98F
DOUGLAS        SUNNY     77  19  11 NW8       29.95F
SAFFORD        SUNNY     83  25  12 N18G24    29.86F
$$

AZZ020-021-025-026-031-272100-
SOUTHWEST ARIZONA

CITY           SKY/WX    TMP DP  RH WIND       PRES   REMARKS
YUMA           SUNNY     90  44  20 SW8       29.80F
$$

CAZ031-033-041-043-047-048-061-272100-
SOUTHERN CALIFORNIA

CITY           SKY/WX    TMP DP  RH WIND       PRES   REMARKS
DOWNTOWN L.A.  SUNNY     73  56  54 VRB3      29.89F
L.A. AIRPORT   MOSUNNY   67  54  63 W12       29.91F
SAN DIEGO      CLOUDY    66  55  67 W7        29.93F
BURBANK        SUNNY     74  54  49 VRB6      29.88F
ONTARIO        MOSUNNY   77  52  41 SW10      29.88F
RIVERSIDE      SUNNY     78  51  38 VRB7      29.88F
PALM SPRINGS     N/A    N/A N/A N/A MISG        N/A
EL CENTRO NAS  MOSUNNY   89  42  19 MISG      29.80F
IMPERIAL       SUNNY     91  44  19 VRB3      29.78F
BLYTHE         SUNNY     91  39  16 VRB6      29.78F
NEEDLES        SUNNY     92  34  13 S3        29.78F
$$

NVZ020-UTZ003-272100-
SOUTHERN NEVADA-UTAH

CITY           SKY/WX    TMP DP  RH WIND       PRES   REMARKS
LAS VEGAS      MOSUNNY   85  30  13 VRB3      29.80F
SALT LAKE CITY PTSUNNY   69  32  25 CALM      29.92F
$$

NMZ009-TXZ055-272100-
NEW MEXICO-WEST TEXAS

CITY           SKY/WX    TMP DP  RH WIND       PRES   REMARKS
ALBUQUERQUE    PTSUNNY   73  24  16 W16G25    29.90F
EL PASO        SUNNY     81  20  10 W16G26    29.89F
$$


........................KEY........................
SKY/WX - SKY CONDITION/WEATHER
TMP    - TEMPERATURE IN FAHRENHEIT
DP     - DEW POINT IN FAHRENHEIT
RH     - RELATIVE HUMIDITY IN PERCENT
WIND   - DIRECTION AND SPEED IN MILES PER HOUR (MPH)
VRB    - VARIABLE WIND DIRECTION
PRES   - MEAN SEA LEVEL PRESSURE IN INCHES OF MERCURY
         F - FALLING PRESSURE   R - RISING PRESSURE
         S - STEADY PRESSURE
VSB    - VISIBILITY IN MILES
HX     - HEAT INDEX IN FAHRENHEIT
WCI    - WIND CHILL INDEX IN FAHRENHEIT
TC     - TEMPERATURE IN CELSIUS WHICH IS ALSO KNOWN AS
         TEMPERATURE IN CENTIGRADE
AFB    - AIR FORCE BASE
         LUKE AFB IS LUKE AIR FORCE BASE
         DAVIS-MONTHAN IS DAVIS-MONTHAN AIR FORCE BASE
NAS    - NAVAL AIR STATION
         EL CENTRO NAS IS EL CENTRO NAVAL AIR STATION
N/A    - NOT AVAILABLE





USA.gov is the U.S. government's official web portal to all federal, state and local government web resources and services.